Location: Newark
(54.2500°N, 9.1833°E)
Time: 15:23:34
(UTC+00:00)

Transit 4A - Pass Details

Date: 24 December 2019
Orbit: 871 x 973 km, 66.8° (Epoch: 17 January)

Event Time Altitude Azimuth Distance (km) Brightness Sun altitude
Rises 20:40:42 0° 317° (NW) 3,507 11.6 -46.9°
Reaches altitude 10° 20:43:15 10° 320° (NW) 2,554 10.7 -47.2°
Enters shadow 20:43:23 11° 320° (NW) 2,502 10.6 -47.2°
